Starlink 34252

operational
NORAD ID: 64330 Int'l Des: 2025-124 Owner: SPXS Country: US Constellation: starlink
LEOCIRCULAR

关于 Starlink 34252

正在加载描述...

实时位置

正在加载3D地球...

即将过境

高度历史

Altitude vs Time

uPlot chart will show altitude changes over time

两行轨道根数

1 64330U 25124P 25260.38450891 .00008751 00000-0 32751-3 0 9995
2 64330 43.0053 20.6253 0001705 269.7431 90.3226 15.27545248 15276
Epoch: Sep 17, 2025 • Age: 41 hours

当前状态

高度 485.7 km
速度 7.63 km/s
星下点 36.55°N, 30.54°E
发射日期 Jun 10, 2025
运行时间 0.2 years
类型 internet

技术详情

分类 Payload
质量 575.00 kg
干质量 530.00 kg
总质量 575.00 kg
长度 0.30 m
直径 4.10 m
跨度 29.00 m
形状 Box + pan
制造商 SPXS
平台类型 Starlink V2MO
阶段状态 In Orbit
所有者/国家 SPXS/US

大型星座

Loading constellations...